Hourly Data Report for July 03, 2021

ALGONQUIN PARK EAST GATE
ONTARIO
Current Station Operator: ECCC - MSC

45°32'00.000" N
78°16'00.000" W
397.00 m
6080192
71581
TNK

Download Data

Hourly Data (July 2021)
Hourly Data Report for July 3, 2021
TIME
LST
Temp Definition
°C
Dew Point Definition
°C
Rel Hum Definition
%
Precip. Amount Definition
mm

Wind Dir Definition
10's deg

Wind Spd Definition
km/h
Visibility Definition
km
Stn Press Definition
kPa
Hmdx Definition


Wind Chill Definition


Weather Definition


00:00 13.9 13.4 97 0.0   0   96.53     LegendNANA
01:00 13.3 12.9 98 0.0   0   96.50     LegendNANA
02:00 12.7 12.4 98 0.0   0   96.51     LegendNANA
03:00 12.9 12.7 99 0.0 0 1   96.51     LegendNANA
04:00 13.4 13.2 99 0.0   0   96.50     LegendNANA
05:00 13.1 12.9 99 0.0 0 1   96.48     LegendNANA
06:00 13.8 13.6 99 0.0 14 2   96.55     LegendNANA
07:00 14.5 14.3 98 0.0 18 1   96.50     LegendNANA
08:00 15.3 14.2 93 0.0 27 2   96.48     LegendNANA
09:00 19.2 16.0 82 0.0 23 4   96.45     LegendNANA
10:00 20.5 14.7 70 0.0 23 4   96.41     LegendNANA
11:00 20.9 13.1 61 0.0 28 3   96.39     LegendNANA
12:00 22.5 11.9 51 0.0 19 4   96.34 25   LegendNANA
13:00 21.4 13.4 60 0.0 8 2   96.30     LegendNANA
14:00 21.3 13.7 62 0.0 11 7   96.30     LegendNANA
15:00 20.7 15.0 70 0.0 12 10   96.29 25   LegendNANA
16:00 21.5 14.2 63 0.0 12 6   96.26 25   LegendNANA
17:00 21.6 13.5 60 0.0 12 6   96.27 25   LegendNANA
18:00 20.5 14.0 66 0.0 11 6   96.32     LegendNANA
19:00 19.5 14.8 75 0.0 11 3   96.36     LegendNANA
20:00 17.7 15.2 86 0.0 0 1   96.39     LegendNANA
21:00 17.1 15.5 90 0.0 36 1   96.45     LegendNANA
22:00 17.3 14.9 86 0.0 0 1   96.50     LegendNANA
23:00 16.2 14.8 91 0.0 13 2   96.52     LegendNANA

Notes on Data Quality.

Legend

  • E = Estimated
  • M = Missing
  • NA = Not Available*
  • [empty] = Indicates an unobserved value
Date modified: